Weather in Karaksha

Russia / Kirov Oblast     57°02′00″N   47°55′36″E
temp.,
°C
wind,
m/s
gust,
m/s
humid.,
%
clouds,
%
prec.,
mm/h
press.,
hPa
HPBL,
m
14 august, sun
sun1400:00+14ne227549 0.0 102212
03:00+13ene11785 0.0 102310
06:00+15ssw1275100 0.0 102348
09:00+18ssw126996 0.0 1023130
12:00+22wsw1254100 0.0 1023873
15:00+24w23521 0.0 10221105
18:00+19nne227766 0.6 102128
21:00+17wnw11825 1.0 102211
15 august, mon
mon1500:00+16wnw118499 0.0 102211
03:00+16nne118554 0.0 102311
06:00+17nne118456 0.0 102337
09:00+21ne22700 0.0 1023501
12:00+24nne33460 0.0 10241638
15:00+24nne33420 0.0 10231759
18:00+22ne22580 0.0 102330
21:00+17ene33590 0.0 102419
16 august, tue
tue1600:00+14e22690 0.0 102511
03:00+13e12710 0.0 102611
06:00+15ene22705 0.0 102663
09:00+21e23535 0.0 1027503
12:00+24e334220 0.0 10261308
15:00+25e234086 0.0 10251592
18:00+22e225759 0.0 102526
21:00+17ese226385 0.0 102511
17 august, wed
wed1700:00+16ese22665 0.0 102511
03:00+14ese22705 0.0 102511
06:00+16ese2269100 0.0 102547
09:00+21ese225495 0.0 1025363
12:00+25se224473 0.0 10231367
15:00+25ese114069 0.0 10231599
18:00+23ene11535 0.0 102211
21:00+18ene11605 0.0 102211
18 august, thu
thu1800:00+16e11665 0.0 102211
03:00+15ene11692 0.0 102211
06:00+17ne22690 0.0 102236
09:00+23ene23520 0.0 1022467
12:00+26e23440 0.0 10211738
15:00+27ene23404 0.0 10202160
18:00+24ene345842 0.0 102080
21:00+19ene33621 0.0 102137